CW3583 Weather Reports


time (UTC)temp
F
wind
direction
speed
knots
gust
knots
rain 1hr
in
rain 24hr
in
rain mn
in
humidity
%
barometer
mb
20260510211807 58 221 2.6 5.2 0.00 0.07 0.07 87 1011.7
20260510210306 58 225 3.5 5.2 0.00 0.07 0.07 87 1011.7
20260510205306 58 223 2.6 4.3 0.00 0.07 0.07 87 1011.6
20260510203804 58 224 3.5 6.1 0.00 0.07 0.07 87 1011.6
20260510203305 59 225 2.6 4.3 0.00 0.07 0.07 88 1011.4
20260510202306 59 227 4.3 6.1 0.00 0.07 0.07 87 1011.3
20260510201303 59 224 2.6 5.2 0.00 0.07 0.07 87 1010.9
20260510195803 60 228 2.6 5.2 0.00 0.07 0.07 87 1010.9
20260510194303 60 225 3.5 5.2 0.00 0.07 0.07 86 1010.8
20260510192306 60 233 4.3 4.3 0.00 0.07 0.07 85 1010.7
20260510191806 60 237 2.6 5.2 0.00 0.07 0.07 85 1010.7
20260510191303 60 241 4.3 7.0 0.00 0.07 0.07 85 1010.7
20260510190804 60 240 3.5 6.1 0.00 0.07 0.07 85 1010.7
20260510190306 61 237 3.5 6.1 0.00 0.07 0.07 85 1010.6
20260510185305 61 249 4.3 6.1 0.01 0.07 0.07 84 1010.5
20260510184303 61 286 1.7 2.6 0.03 0.07 0.07 84 1010.4
20260510180305 60 256 6.1 11.3 0.06 0.07 0.07 82 1010.1
20260510174806 61 305 10.4 17.4 0.03 0.05 0.05 82 1009.9
20260510174303 61 309 9.6 17.4 0.02 0.04 0.04 81 1009.8
20260510173305 62 310 10.4 15.6 0.01 0.02 0.02 79 1009.6
20260510171806 63 333 8.7 13.0 0.00 0.02 0.02 78 1009.6
20260510170803 63 342 6.1 10.4 0.00 0.02 0.02 77 1009.5
20260510170306 63 330 7.8 11.3 0.00 0.02 0.02 76 1009.4
20260510165804 64 325 5.2 7.8 0.00 0.02 0.02 76 1009.3
20260510164807 63 333 7.8 10.4 0.00 0.02 0.02 75 1009.2
20260510162306 66 348 7.8 12.2 0.00 0.02 0.02 67 1008.7
20260510160306 66 244 6.1 10.4 0.00 0.02 0.02 63 1008.2
20260510155803 67 296 4.3 11.3 0.00 0.02 0.02 64 1008.1
20260510155305 67 254 7.8 11.3 0.02 0.02 0.02 63 1008.1
20260510145804 65 195 7.8 17.4 0.02 0.02 0.02 59 1008.3
20260510144806 68 229 6.1 10.4 0.00 0.01 0.00 50 1008.1
20260510140306 67 67 3.5 12.2 0.00 0.01 0.00 54 1008.0
20260510135803 67 131 5.2 11.3 0.00 0.01 0.00 55 1008.0
20260510134807 67 148 2.6 7.8 0.00 0.01 0.00 56 1008.4
20260510133804 66 186 2.6 6.1 0.00 0.01 0.00 56 1008.3
20260510133306 66 196 4.3 8.7 0.00 0.01 0.00 56 1008.3
20260510131806 65 119 5.2 11.3 0.00 0.01 0.00 56 1007.7
20260510131304 65 79 7.8 11.3 0.00 0.01 0.00 55 1007.1
20260510125803 65 172 4.3 12.2 0.00 0.01 0.00 53 1008.3
20260510123803 66 203 7.8 22.6 0.00 0.01 0.00 55 1009.4
20260510123305 66 169 5.2 12.2 0.00 0.01 0.00 57 1009.5
20260510121303 64 203 5.2 10.4 0.00 0.01 0.00 67 1009.6
20260510120305 63 117 5.2 8.7 0.00 0.01 0.00 76 1009.5
20260510114304 63 87 5.2 10.4 0.00 0.01 0.00 76 1009.5
20260510112804 63 60 5.2 11.3 0.00 0.01 0.00 76 1009.5
20260510111304 63 27 4.3 15.6 0.00 0.01 0.00 76 1009.5
20260510105804 64 21 7.8 11.3 0.00 0.01 0.00 75 1009.4
20260510104806 64 73 4.3 6.1 0.00 0.01 0.00 76 1009.6
20260510104303 64 41 6.1 10.4 0.00 0.01 0.00 76 1009.5
20260510103307 64 333 5.2 10.4 0.00 0.01 0.00 74 1009.3
20260510102306 64 30 7.0 10.4 0.00 0.01 0.00 73 1009.2
20260510100306 66 327 7.8 11.3 0.00 0.01 0.00 67 1009.2
20260510095803 66 69 3.5 7.0 0.00 0.01 0.00 64 1009.4
20260510095305 67 90 4.3 8.7 0.00 0.01 0.00 63 1009.4
20260510094807 68 119 2.6 8.7 0.00 0.01 0.00 62 1009.4
20260510085803 68 210 2.6 7.0 0.00 0.01 0.00 54 1009.3
20260510083804 67 129 3.5 7.0 0.00 0.01 0.00 55 1009.4
20260510082804 67 192 2.6 6.1 0.00 0.01 0.00 56 1009.4
20260510081303 66 178 2.6 5.2 0.00 0.01 0.00 56 1009.5
20260510072305 64 221 5.2 7.8 0.00 0.02 0.00 61 1009.2
20260510071806 64 225 4.3 7.8 0.00 0.02 0.00 61 1009.2
20260510070305 64 191 4.3 7.8 0.00 0.02 0.00 61 1008.9
20260510065804 64 199 4.3 8.7 0.00 0.02 0.00 61 1008.9
20260510063306 62 245 4.3 7.0 0.00 0.02 0.00 65 1008.7
20260510061806 63 213 2.6 5.2 0.00 0.02 0.00 64 1008.6
20260510060804 62 279 3.5 5.2 0.00 0.02 0.00 64 1008.5
20260510055803 62 235 5.2 10.4 0.00 0.02 0.00 65 1008.3
20260510053804 62 186 1.7 2.6 0.00 0.02 0.00 67 1008.2
20260510050804 62 231 1.7 8.7 0.00 0.02 0.00 66 1008.0
20260510050306 62 241 2.6 6.1 0.00 0.02 0.00 66 1007.9
20260510045306 62 252 4.3 7.0 0.00 0.02 0.00 67 1007.8
20260510043307 62 295 1.7 4.3 0.00 0.02 0.00 69 1007.8
20260510042804 63 274 1.7 5.2 0.00 0.02 0.00 68 1007.7
20260510042306 63 280 2.6 4.3 0.00 0.02 0.00 67 1007.8
20260510035804 63 253 2.6 7.0 0.00 0.02 0.00 65 1007.6
20260510033804 64 236 5.2 7.8 0.00 0.02 0.00 63 1007.6
20260510033306 64 225 5.2 12.2 0.00 0.02 0.00 62 1007.5
20260510032306 64 231 6.1 13.9 0.00 0.02 0.00 63 1007.3
20260510022804 64 189 10.4 17.4 0.00 0.02 0.00 64 1006.8
20260510021304 64 222 3.5 12.2 0.00 0.02 0.00 63 1006.9
20260510020803 64 198 6.1 10.4 0.00 0.02 0.00 63 1006.9
20260510020307 64 191 7.8 13.0 0.00 0.02 0.00 63 1007.0
20260510015306 64 213 7.8 17.4 0.00 0.02 0.00 63 1007.0
20260510014806 64 242 7.8 15.6 0.00 0.02 0.00 63 1007.2
20260510014304 64 219 5.2 10.4 0.00 0.02 0.00 64 1007.1
20260510012804 64 208 11.3 20.0 0.00 0.02 0.00 64 1007.0
20260510010803 64 204 7.8 17.4 0.00 0.02 0.00 65 1007.2
20260510010306 64 210 5.2 10.4 0.00 0.02 0.00 65 1007.2
20260510005306 64 206 5.2 10.4 0.00 0.02 0.00 65 1007.4
20260510004807 64 148 7.8 12.2 0.00 0.02 0.00 65 1007.5
20260510002803 65 182 10.4 14.8 0.00 0.02 0.00 62 1007.7
20260510001807 65 185 6.1 13.9 0.00 0.02 0.00 61 1007.5
20260510001303 65 197 8.7 14.8 0.00 0.02 0.00 60 1007.6
20260510000306 66 197 5.2 14.8 0.00 0.02 0.00 61 1007.7
20260509234806 65 233 5.2 11.3 0.00 0.02 0.00 63 1007.8
20260509233306 63 170 0.9 7.0 0.00 0.02 0.00 69 1007.9
20260509231806 63 280 1.7 2.6 0.00 0.02 0.00 70 1008.0
20260509230806 63 102 2.6 7.0 0.00 0.02 0.00 70 1007.9
20260509230308 63 108 2.6 5.2 0.00 0.02 0.00 70 1007.8
20260509225803 63 161 4.3 8.7 0.00 0.02 0.00 70 1007.8
20260509224806 63 137 2.6 7.0 0.00 0.02 0.00 71 1008.0
20260509224303 63 197 1.7 5.2 0.00 0.02 0.00 71 1008.0
20260509222804 64 252 2.6 6.1 0.00 0.02 0.00 71 1007.8
20260509220306 65 191 2.6 5.2 0.00 0.02 0.00 69 1007.8
20260509214304 66 155 1.7 8.7 0.00 0.02 0.02 71 1008.1
20260509213804 66 206 2.6 5.2 0.00 0.02 0.02 71 1008.2